Regional Weather Roundup
Issued by NWS Cleveland, OH

Home | Current Version | Previous Version | Graphics & Text | Print | Product List | Glossary On
Versions: 1 2 3 4 5 6 7 8 9 10 11 12 13 14 15 16 17 18 19 20 21 22 23 24 25 26 27 28 29 30 31 32 33 34 35 36 37 38 39 40 41 42 43 44 45 46 47 48 49 50
408
ASUS41 KCLE 031810
RWRCLE
OHIO REGIONAL WEATHER ROUNDUP
NATIONAL WEATHER SERVICE CLEVELAND, OH
100 PM EST SAT DEC 03 2016

NOTE: "FAIR" INDICATES FEW OR NO CLOUDS BELOW 12,000 FEET WITH NO
SIGNIFICANT WEATHER AND/OR OBSTRUCTIONS TO VISIBILITY.

OHZ001>008-015>018-024>027-034-035-043-044-031900-
   NORTHWEST OHIO

CITY           SKY/WX    TMP DP  RH WIND       PRES   REMARKS
DEFIANCE       CLOUDY    39  24  55 SW8       30.33R
FINDLAY        CLOUDY    39  27  62 SW8       30.30R
TOLEDO EXPRESS CLOUDY    37  29  72 W6        30.29S
TOLEDO EXEC    CLOUDY    39  30  70 W8        30.30F
LIMA           CLOUDY    36  27  69 W10       30.29F
$$

OHZ009>014-019>023-028>033-038-089-031900-
   NORTHEAST OHIO

CITY           SKY/WX    TMP DP  RH WIND       PRES   REMARKS
CLE-HOPKINS    CLOUDY    40  29  64 W10       30.28F
CLE-LAKEFRONT  CLOUDY    39  32  76 SW13      30.25F
CUY CO. ARPT   CLOUDY    41  36  81 W12       30.25F
LORAIN-ELYRIA  CLOUDY    38  29  70 NW9       30.27F
ASHTABULA      NOT AVBL
AKRON-CANTON   CLOUDY    37  29  72 W8        30.26F
WOOSTER        CLOUDY    37  28  70 W12       30.28S
MANSFIELD      CLOUDY    36  28  73 W8        30.27S
YOUNGSTOWN     CLOUDY    38  31  76 W7        30.22F
$$

OHZ042-051>053-060>062-070>072-077>081-031900-
  SOUTHWEST OHIO

CITY           SKY/WX    TMP DP  RH WIND       PRES   REMARKS
CINC-COVINGTON CLOUDY    40  30  67 CALM      30.33F
CINC-LUNKEN    CLOUDY    41  30  65 CALM      30.36F
HAMILTON       CLOUDY    42  27  55 W6        30.35F
DAYTON         CLOUDY    38  25  59 SW8       30.32S
WRIGHT-PAT AFB CLOUDY    39  26  59 SW7       30.31S
DAYTON GENERAL NOT AVBL
WILMINGTON     CLOUDY    38  28  67 W9        30.30F
$$

OHZ036-037-039>041-045>050-054>059-063>069-073>076-082>088-031900-
  CENTRAL AND SOUTHEAST OHIO

CITY           SKY/WX    TMP DP  RH WIND       PRES   REMARKS
COLUMBUS       CLOUDY    39  28  64 NW8       30.31S
OSU AIRPORT    CLOUDY    38  26  62 VRB5      30.30F
BOLTON FIELD   CLOUDY    39  25  56 W3        30.31S
RICKENBACK AFB CLOUDY    38  28  65 W5        30.31S
NEWARK         CLOUDY    38  28  67 NW3       30.29F
MARION         CLOUDY    37  24  59 W5        30.30R
LANCASTER      CLOUDY    38  30  73 SW7       30.32S
ZANESVILLE     CLOUDY    39  26  59 NW6       30.29F
NEW PHILLY     CLOUDY    37  29  72 SW6       30.30
$$




USA.gov is the U.S. government's official web portal to all federal, state and local government web resources and services.